{"data":{"norad_id":61207,"intl_designator":"2024-171H","name":"STARLINK-11091 [DTC]","alt_names":[],"object_type":"PAYLOAD","status":"ACTIVE","operator":null,"country":"US","launch_date":"2024-09-20","launch_site_code":"AFWTR","launch_vehicle":null,"mission":null,"orbit_class":"UNKNOWN","rcs_meters":null,"size_class":null,"mass_kg":null,"dimensions":null,"purposes":["comms"],"wikipedia_slug":null,"has_3d_model":false,"image_url":null,"decayed_at":null,"tle_current":{"epoch":"2026-05-25T01:15:28.096128Z","epoch_age_seconds":84712,"freshness":"FRESH","line1":"1 61207U 24171H   26145.05240852  .00004069  00000+0  38440-4 0  9996","line2":"2 61207  53.1585 159.7237 0000899 118.8093 241.3015 15.69700024 96392","mean_motion":15.69700024,"eccentricity":8.99e-5,"inclination_deg":53.1585,"raan_deg":159.7237,"arg_perigee_deg":118.8093,"mean_anomaly_deg":241.3015,"bstar":3.844e-5,"rev_number":9639,"period_min":91.737273235845,"perigee_km":359.14956154677,"apogee_km":360.36103458196,"semimajor_km":6737.8922980644,"source":"CELESTRAK","updated_at":"2026-05-25T13:38:19.359923Z"}}}